When you browse on this site, cookies collect data to enhance your experience and personalize the content and advertising you see.
Visit our Privacy Policy to learn more. By continuing to use the site, you agree to this use of cookies and data.
  • In Netherlands
  • List of Countries
  • For 7 days
  • Water Temperature
  • Weather Map
  • Weather Widgets
  • user-avatar
    Login

    Hourly Weather Ashty

    Today, 17 February, Monday

    Time Temperature Precipitation Wind Pressure Humidity
    00:00 -9°C° 0 mm 1 mps 624 mmHg 79%
    01:00 -9°C° 0 mm 1 mps 624 mmHg 75%
    02:00 -9°C° 0 mm 1 mps 624 mmHg 71%
    03:00 -9°C° 0 mm 1 mps 624 mmHg 66%
    04:00 -9°C° 0 mm 1 mps 624 mmHg 64%
    05:00 -9°C° 0 mm 1 mps 624 mmHg 62%
    06:00 -9°C° 0 mm 1 mps 624 mmHg 61%
    07:00 -8°C° 0 mm 1 mps 625 mmHg 65%
    08:00 -6°C° 0 mm 1 mps 626 mmHg 70%
    09:00 -4°C° 0 mm 1 mps 626 mmHg 75%
    10:00 -4°C° 0 mm 1 mps 627 mmHg 77%
    11:00 -5°C° 0 mm 2 mps 627 mmHg 80%
    12:00 -4°C° 0 mm 2 mps 627 mmHg 82%
    13:00 -4°C° 0 mm 2 mps 627 mmHg 85%
    14:00 -4°C° 0 mm 2 mps 626 mmHg 88%
    15:00 -2°C° 0 mm 1 mps 626 mmHg 91%
    16:00 -3°C° 0 mm 1 mps 626 mmHg 92%
    17:00 -4°C° 0 mm 1 mps 626 mmHg 93%
    18:00 -6°C° 0 mm 1 mps 625 mmHg 94%
    19:00 -6°C° 0 mm 1 mps 625 mmHg 89%
    20:00 -6°C° 0 mm 1 mps 625 mmHg 85%
    21:00 -7°C° 0 mm 1 mps 625 mmHg 80%
    22:00 -7°C° 0 mm 1 mps 625 mmHg 77%
    23:00 -7°C° 0 mm 1 mps 625 mmHg 74%

    Tomorrow, 18 February, Tuesday

    Time Temperature Precipitation Wind Pressure Humidity
    00:00 -7°C° 0 mm 1 mps 625 mmHg 70%
    01:00 -7°C° 0 mm 2 mps 625 mmHg 66%
    02:00 -7°C° 0 mm 2 mps 625 mmHg 63%
    03:00 -6°C° 0 mm 2 mps 625 mmHg 59%
    04:00 -6°C° 0 mm 2 mps 625 mmHg 57%
    05:00 -5°C° 0 mm 2 mps 625 mmHg 55%
    06:00 -5°C° 0 mm 2 mps 625 mmHg 54%
    07:00 -1°C° 0 mm 1 mps 625 mmHg 59%
    08:00 +1°C° 0 mm 1 mps 626 mmHg 64%
    09:00 +2°C° 0 mm 1 mps 627 mmHg 69%
    10:00 +3°C° 0 mm 1 mps 627 mmHg 76%
    11:00 +3°C° 0 mm 1 mps 626 mmHg 84%
    12:00 +4°C° 0 mm 1 mps 626 mmHg 91%
    13:00 +4°C° 0 mm 1 mps 626 mmHg 90%
    14:00 +4°C° 0 mm 1 mps 625 mmHg 88%
    15:00 +4°C° 0 mm 1 mps 625 mmHg 87%
    16:00 +4°C° 0 mm 1 mps 625 mmHg 77%
    17:00 +2°C° 0 mm 2 mps 624 mmHg 68%
    18:00 +1°C° 0 mm 2 mps 623 mmHg 58%
    19:00 0°C° 0 mm 3 mps 623 mmHg 53%
    20:00 0°C° 0 mm 3 mps 623 mmHg 49%
    21:00 -1°C° 0 mm 3 mps 623 mmHg 45%
    22:00 -1°C° 0 mm 3 mps 622 mmHg 42%
    23:00 -1°C° 0 mm 3 mps 622 mmHg 39%

    Day after tomorrow, 19 February, Wednesday

    Time Temperature Precipitation Wind Pressure Humidity
    00:00 -1°C° 0 mm 3 mps 621 mmHg 36%
    01:00 -1°C° 0 mm 3 mps 621 mmHg 36%
    02:00 -1°C° 0 mm 3 mps 621 mmHg 35%
    03:00 -1°C° 0 mm 3 mps 620 mmHg 34%
    04:00 -1°C° 0 mm 3 mps 620 mmHg 33%
    05:00 -1°C° 0 mm 3 mps 620 mmHg 32%
    06:00 -1°C° 0 mm 3 mps 620 mmHg 30%
    07:00 +1°C° 0 mm 2 mps 620 mmHg 38%
    08:00 +2°C° 0 mm 2 mps 621 mmHg 46%
    09:00 +4°C° 0 mm 1 mps 621 mmHg 54%
    10:00 +5°C° 0 mm 1 mps 621 mmHg 65%
    11:00 +5°C° 0 mm 1 mps 621 mmHg 77%
    12:00 +4°C° 0 mm 0 mps 621 mmHg 89%
    13:00 +4°C° 0 mm 0 mps 621 mmHg 87%
    14:00 +4°C° 0 mm 0 mps 620 mmHg 84%
    15:00 +4°C° 0 mm 0 mps 620 mmHg 82%
    16:00 +2°C° 0 mm 0 mps 619 mmHg 76%
    17:00 +2°C° 0 mm 1 mps 619 mmHg 70%
    18:00 0°C° 0 mm 1 mps 618 mmHg 63%
    19:00 0°C° 0 mm 1 mps 618 mmHg 60%
    20:00 0°C° 0 mm 1 mps 618 mmHg 56%
    21:00 -1°C° 0 mm 1 mps 618 mmHg 53%
    22:00 -1°C° 0 mm 1 mps 617 mmHg 52%
    23:00 -1°C° 0 mm 1 mps 617 mmHg 51%

    20 February, Thursday

    Time Temperature Precipitation Wind Pressure Humidity
    00:00 -1°C° 0 mm 1 mps 617 mmHg 50%
    01:00 -1°C° 0 mm 1 mps 617 mmHg 50%
    02:00 -1°C° 0 mm 1 mps 616 mmHg 50%
    03:00 -2°C° 0 mm 1 mps 616 mmHg 50%
    04:00 -2°C° 0 mm 1 mps 616 mmHg 50%
    05:00 -2°C° 0 mm 1 mps 616 mmHg 49%
    06:00 -2°C° 0 mm 1 mps 616 mmHg 49%
    07:00 -1°C° 0 mm 1 mps 616 mmHg 54%
    08:00 0°C° 0 mm 0 mps 617 mmHg 60%
    09:00 +1°C° 0 mm 0 mps 618 mmHg 65%
    10:00 +1°C° 0 mm 0 mps 618 mmHg 70%
    11:00 +2°C° 0 mm 1 mps 617 mmHg 74%
    12:00 +3°C° 0 mm 1 mps 617 mmHg 79%
    13:00 +3°C° 0 mm 1 mps 617 mmHg 81%
    14:00 +3°C° 0 mm 1 mps 617 mmHg 83%
    15:00 +3°C° 0 mm 1 mps 616 mmHg 85%
    16:00 0°C° 0 mm 0 mps 616 mmHg 87%
    17:00 -1°C° 0 mm 0 mps 615 mmHg 88%
    18:00 -2°C° 0 mm 0 mps 615 mmHg 90%
    19:00 -2°C° 0 mm 0 mps 615 mmHg 88%
    20:00 -2°C° 0 mm 0 mps 615 mmHg 87%
    21:00 -2°C° 0 mm 1 mps 615 mmHg 85%
    22:00 -2°C° 0 mm 1 mps 615 mmHg 84%
    23:00 -2°C° 0 mm 1 mps 615 mmHg 82%

    21 February, Friday

    Time Temperature Precipitation Wind Pressure Humidity
    00:00 -2°C° 0 mm 1 mps 615 mmHg 81%
    01:00 -2°C° 0 mm 1 mps 615 mmHg 80%
    02:00 -2°C° 0 mm 1 mps 614 mmHg 79%
    03:00 -2°C° 0 mm 1 mps 614 mmHg 79%
    04:00 -2°C° 0 mm 1 mps 614 mmHg 78%
    05:00 -2°C° 0 mm 1 mps 614 mmHg 78%
    06:00 -2°C° 0 mm 1 mps 615 mmHg 77%
    07:00 -1°C° 0 mm 1 mps 615 mmHg 78%
    08:00 0°C° 0 mm 1 mps 616 mmHg 79%
    09:00 0°C° 0 mm 0 mps 617 mmHg 80%
    16:00 +1°C° 0 mm 1 mps 617 mmHg 90%
    17:00 0°C° 0 mm 1 mps 617 mmHg 90%
    18:00 -1°C° 0 mm 1 mps 617 mmHg 89%
    19:00 -1°C° 0 mm 1 mps 617 mmHg 85%
    20:00 -2°C° 0 mm 1 mps 617 mmHg 81%
    21:00 -4°C° 0 mm 2 mps 617 mmHg 78%
    22:00 -4°C° 0 mm 2 mps 617 mmHg 76%
    23:00 -4°C° 0 mm 2 mps 617 mmHg 74%

    22 February, Saturday

    Time Temperature Precipitation Wind Pressure Humidity
    00:00 -5°C° 0 mm 2 mps 617 mmHg 72%
    01:00 -5°C° 0 mm 2 mps 617 mmHg 72%
    02:00 -5°C° 0 mm 2 mps 617 mmHg 72%
    03:00 -5°C° 0 mm 2 mps 617 mmHg 72%
    04:00 -5°C° 0 mm 2 mps 618 mmHg 71%
    05:00 -5°C° 0 mm 2 mps 618 mmHg 70%
    06:00 -5°C° 0 mm 2 mps 618 mmHg 68%
    07:00 -2°C° 0 mm 1 mps 619 mmHg 69%
    08:00 0°C° 0 mm 1 mps 620 mmHg 70%
    09:00 +1°C° 0 mm 1 mps 620 mmHg 72%
    10:00 +2°C° 0 mm 1 mps 620 mmHg 75%
    11:00 +2°C° 0 mm 1 mps 621 mmHg 78%
    12:00 +3°C° 0 mm 1 mps 621 mmHg 81%
    13:00 +3°C° 0 mm 1 mps 620 mmHg 83%
    14:00 +3°C° 0 mm 1 mps 620 mmHg 85%
    15:00 +3°C° 0 mm 1 mps 620 mmHg 87%
    16:00 +1°C° 0 mm 1 mps 619 mmHg 87%
    17:00 0°C° 0 mm 1 mps 619 mmHg 87%
    18:00 -2°C° 0 mm 0 mps 619 mmHg 86%
    19:00 -2°C° 0 mm 0 mps 619 mmHg 86%
    20:00 -2°C° 0 mm 0 mps 619 mmHg 85%
    21:00 -2°C° 0 mm 0 mps 619 mmHg 84%
    22:00 -2°C° 0 mm 0 mps 619 mmHg 84%
    23:00 -3°C° 0 mm 0 mps 619 mmHg 85%
    Show more